Time,TemperatureF,DewpointF,PressureIn,WindDirection,WindDirectionDegrees,WindSpeedMPH,WindSpeedGustMPH,Humidity,HourlyPrecipIn,Conditions,Clouds,dailyrainin,SoftwareType,DateUTC
2013-02-28 00:09:00,41.5,33.0,29.64,North,5,0.0,3.0,73,0.00,,,0.00,weatherlink.com 1.10,2013-02-28 05:09:00,
2013-02-28 00:25:00,41.0,34.0,29.64,North,5,0.0,0.0,75,0.00,,,0.00,weatherlink.com 1.10,2013-02-28 05:25:00,
2013-02-28 00:40:00,40.6,34.0,29.64,North,5,0.0,1.0,76,0.00,,,0.00,weatherlink.com 1.10,2013-02-28 05:40:00,
2013-02-28 00:55:00,40.5,34.0,29.64,North,5,0.0,1.0,76,0.00,,,0.00,weatherlink.com 1.10,2013-02-28 05:55:00,
2013-02-28 01:10:00,40.7,33.0,29.65,North,5,0.0,2.0,74,0.00,,,0.00,weatherlink.com 1.10,2013-02-28 06:10:00,
2013-02-28 01:25:00,41.1,33.0,29.64,North,355,0.0,2.0,72,0.00,,,0.00,weatherlink.com 1.10,2013-02-28 06:25:00,
2013-02-28 01:40:00,40.9,33.0,29.64,North,355,0.0,1.0,73,0.00,,,0.00,weatherlink.com 1.10,2013-02-28 06:40:00,
2013-02-28 01:55:00,40.6,33.0,29.65,North,355,0.0,2.0,74,0.00,,,0.00,weatherlink.com 1.10,2013-02-28 06:55:00,
2013-02-28 02:10:00,40.4,32.0,29.64,NNE,29,1.0,2.0,73,0.00,,,0.00,weatherlink.com 1.10,2013-02-28 07:10:00,
2013-02-28 02:25:00,40.1,31.0,29.64,NNE,30,0.0,2.0,71,0.00,,,0.00,weatherlink.com 1.10,2013-02-28 07:25:00,
2013-02-28 02:40:00,39.8,31.0,29.65,West,271,1.0,4.0,70,0.00,,,0.00,weatherlink.com 1.10,2013-02-28 07:40:00,
2013-02-28 02:55:00,39.6,30.0,29.64,NNE,26,0.0,3.0,69,0.00,,,0.00,weatherlink.com 1.10,2013-02-28 07:55:00,
2013-02-28 03:10:00,39.1,30.0,29.64,WNW,300,0.0,3.0,70,0.00,,,0.00,weatherlink.com 1.10,2013-02-28 08:10:00,
2013-02-28 03:25:00,38.6,30.0,29.64,North,355,0.0,3.0,72,0.00,,,0.00,weatherlink.com 1.10,2013-02-28 08:25:00,
2013-02-28 03:40:00,37.9,30.0,29.64,NNW,345,0.0,1.0,73,0.00,,,0.00,weatherlink.com 1.10,2013-02-28 08:40:00,
2013-02-28 03:55:00,37.7,30.0,29.64,NNW,345,1.0,2.0,74,0.00,,,0.00,weatherlink.com 1.10,2013-02-28 08:55:00,
2013-02-28 04:10:00,37.3,29.0,29.65,NNW,345,0.0,2.0,72,0.00,,,0.00,weatherlink.com 1.10,2013-02-28 09:10:00,
2013-02-28 04:25:00,36.7,28.0,29.65,South,191,1.0,2.0,72,0.00,,,0.00,weatherlink.com 1.10,2013-02-28 09:25:00,
2013-02-28 04:40:00,36.3,27.0,29.65,South,191,0.0,2.0,70,0.00,,,0.00,weatherlink.com 1.10,2013-02-28 09:40:00,
2013-02-28 04:55:00,35.7,27.0,29.65,SSW,212,1.0,2.0,72,0.00,,,0.00,weatherlink.com 1.10,2013-02-28 09:55:00,
2013-02-28 05:10:00,35.5,27.0,29.65,WNW,296,0.0,4.0,72,0.00,,,0.00,weatherlink.com 1.10,2013-02-28 10:10:00,
2013-02-28 05:25:00,35.0,26.0,29.66,WNW,296,0.0,1.0,71,0.00,,,0.00,weatherlink.com 1.10,2013-02-28 10:25:00,
2013-02-28 05:40:00,34.8,26.0,29.66,WNW,296,0.0,1.0,71,0.00,,,0.00,weatherlink.com 1.10,2013-02-28 10:40:00,
2013-02-28 05:55:00,34.8,26.0,29.66,WSW,237,0.0,3.0,70,0.00,,,0.00,weatherlink.com 1.10,2013-02-28 10:55:00,
2013-02-28 06:10:00,35.4,27.0,29.66,WSW,252,3.0,3.0,70,0.00,,,0.00,weatherlink.com 1.10,2013-02-28 11:10:00,
2013-02-28 06:25:00,35.9,27.0,29.66,NNW,327,0.0,6.0,70,0.00,,,0.00,weatherlink.com 1.10,2013-02-28 11:25:00,
2013-02-28 06:40:00,36.0,26.0,29.66,West,267,0.0,4.0,66,0.00,,,0.00,weatherlink.com 1.10,2013-02-28 11:40:00,
2013-02-28 06:55:00,36.2,26.0,29.66,West,262,2.0,5.0,66,0.00,,,0.00,weatherlink.com 1.10,2013-02-28 11:55:00,
2013-02-28 07:10:00,36.1,26.0,29.66,WSW,249,0.0,3.0,66,0.00,,,0.00,weatherlink.com 1.10,2013-02-28 12:10:00,
2013-02-28 07:25:00,36.4,26.0,29.66,NW,310,1.0,4.0,66,0.00,,,0.00,weatherlink.com 1.10,2013-02-28 12:25:00,
2013-02-28 07:40:00,36.6,27.0,29.66,NW,310,0.0,1.0,67,0.00,,,0.00,weatherlink.com 1.10,2013-02-28 12:40:00,
2013-02-28 07:55:00,37.5,26.0,29.67,West,276,1.0,3.0,64,0.00,,,0.00,weatherlink.com 1.10,2013-02-28 12:55:00,
2013-02-28 08:10:00,37.7,26.0,29.67,WNW,294,2.0,3.0,63,0.00,,,0.00,weatherlink.com 1.10,2013-02-28 13:10:00,
2013-02-28 08:25:00,38.0,27.0,29.67,NW,318,0.0,3.0,64,0.00,,,0.00,weatherlink.com 1.10,2013-02-28 13:25:00,
2013-02-28 08:40:00,38.4,26.0,29.67,SW,228,2.0,5.0,61,0.00,,,0.00,weatherlink.com 1.10,2013-02-28 13:40:00,
2013-02-28 08:55:00,38.7,27.0,29.67,North,360,1.0,5.0,64,0.00,,,0.00,weatherlink.com 1.10,2013-02-28 13:55:00,
2013-02-28 09:10:00,39.4,27.0,29.67,West,273,0.0,3.0,62,0.00,,,0.00,weatherlink.com 1.10,2013-02-28 14:10:00,
2013-02-28 09:25:00,39.3,28.0,29.66,NW,304,2.0,4.0,63,0.00,,,0.00,weatherlink.com 1.10,2013-02-28 14:25:00,
2013-02-28 09:40:00,39.4,28.0,29.66,SW,234,2.0,4.0,63,0.00,,,0.00,weatherlink.com 1.10,2013-02-28 14:40:00,
2013-02-28 09:55:00,40.1,27.0,29.66,NNW,329,1.0,5.0,61,0.00,,,0.00,weatherlink.com 1.10,2013-02-28 14:55:00,
2013-02-28 10:10:00,40.6,28.0,29.66,WNW,297,4.0,6.0,61,0.00,,,0.00,weatherlink.com 1.10,2013-02-28 15:10:00,
2013-02-28 10:25:00,39.8,28.0,29.66,NW,316,2.0,7.0,62,0.00,,,0.00,weatherlink.com 1.10,2013-02-28 15:25:00,
2013-02-28 10:40:00,39.7,28.0,29.66,NNW,327,2.0,5.0,64,0.00,,,0.00,weatherlink.com 1.10,2013-02-28 15:40:00,
2013-02-28 10:55:00,39.6,28.0,29.66,SW,215,2.0,6.0,64,0.00,,,0.00,weatherlink.com 1.10,2013-02-28 15:55:00,
2013-02-28 11:10:00,39.5,29.0,29.67,NNE,23,0.0,6.0,65,0.00,,,0.00,weatherlink.com 1.10,2013-02-28 16:10:00,
2013-02-28 11:25:00,40.1,29.0,29.66,ENE,72,1.0,6.0,64,0.00,,,0.00,weatherlink.com 1.10,2013-02-28 16:25:00,
2013-02-28 11:40:00,40.0,29.0,29.66,West,275,2.0,7.0,64,0.00,,,0.00,weatherlink.com 1.10,2013-02-28 16:40:00,
2013-02-28 11:55:00,39.6,28.0,29.66,SW,217,0.0,7.0,64,0.00,,,0.00,weatherlink.com 1.10,2013-02-28 16:55:00,
2013-02-28 12:10:00,39.7,28.0,29.66,South,178,0.0,4.0,64,0.00,,,0.00,weatherlink.com 1.10,2013-02-28 17:10:00,
2013-02-28 12:25:00,40.1,26.0,29.66,SSE,161,3.0,6.0,58,0.00,,,0.00,weatherlink.com 1.10,2013-02-28 17:25:00,
2013-02-28 12:40:00,41.0,27.0,29.66,SSW,196,0.0,7.0,57,0.00,,,0.00,weatherlink.com 1.10,2013-02-28 17:40:00,
2013-02-28 12:55:00,41.0,26.0,29.66,South,182,0.0,8.0,56,0.00,,,0.00,weatherlink.com 1.10,2013-02-28 17:55:00,
2013-02-28 13:10:00,40.8,26.0,29.65,South,182,4.0,9.0,55,0.00,,,0.00,weatherlink.com 1.10,2013-02-28 18:10:00,
2013-02-28 13:25:00,40.9,26.0,29.65,WNW,299,2.0,9.0,56,0.00,,,0.00,weatherlink.com 1.10,2013-02-28 18:25:00,
2013-02-28 13:40:00,41.4,27.0,29.65,NE,50,1.0,6.0,57,0.00,,,0.00,weatherlink.com 1.10,2013-02-28 18:40:00,
2013-02-28 13:56:00,41.6,26.0,29.65,WSW,249,2.0,7.0,55,0.00,,,0.00,weatherlink.com 1.10,2013-02-28 18:56:00,
2013-02-28 14:11:00,41.6,27.0,29.64,NW,304,1.0,13.0,56,0.00,,,0.00,weatherlink.com 1.10,2013-02-28 19:11:00,
2013-02-28 14:26:00,41.5,26.0,29.65,SSW,200,4.0,7.0,55,0.00,,,0.00,weatherlink.com 1.10,2013-02-28 19:26:00,
2013-02-28 14:41:00,41.3,26.0,29.65,East,88,7.0,11.0,56,0.00,,,0.00,weatherlink.com 1.10,2013-02-28 19:41:00,
2013-02-28 14:56:00,41.7,27.0,29.65,WNW,282,0.0,7.0,57,0.00,,,0.00,weatherlink.com 1.10,2013-02-28 19:56:00,
2013-02-28 15:11:00,41.5,28.0,29.66,North,10,1.0,9.0,58,0.00,,,0.00,weatherlink.com 1.10,2013-02-28 20:11:00,
2013-02-28 15:26:00,41.4,29.0,29.65,East,96,1.0,5.0,61,0.00,,,0.00,weatherlink.com 1.10,2013-02-28 20:26:00,
2013-02-28 15:41:00,41.4,27.0,29.65,NW,304,1.0,7.0,58,0.00,,,0.00,weatherlink.com 1.10,2013-02-28 20:41:00,
2013-02-28 15:56:00,41.0,27.0,29.65,East,80,2.0,7.0,59,0.00,,,0.00,weatherlink.com 1.10,2013-02-28 20:56:00,
2013-02-28 16:11:00,40.7,28.0,29.65,SW,229,1.0,10.0,61,0.00,,,0.00,weatherlink.com 1.10,2013-02-28 21:11:00,
2013-02-28 16:26:00,40.4,28.0,29.66,NNE,21,0.0,5.0,62,0.00,,,0.00,weatherlink.com 1.10,2013-02-28 21:26:00,
2013-02-28 16:41:00,40.4,29.0,29.66,SE,144,2.0,7.0,63,0.00,,,0.00,weatherlink.com 1.10,2013-02-28 21:41:00,
2013-02-28 16:56:00,39.6,29.0,29.67,SSW,213,1.0,4.0,66,0.00,,,0.00,weatherlink.com 1.10,2013-02-28 21:56:00,
2013-02-28 17:11:00,38.7,29.0,29.67,ENE,59,0.0,4.0,68,0.00,,,0.00,weatherlink.com 1.10,2013-02-28 22:11:00,
2013-02-28 17:26:00,38.4,29.0,29.67,ENE,61,0.0,2.0,68,0.00,,,0.00,weatherlink.com 1.10,2013-02-28 22:26:00,
2013-02-28 17:41:00,38.4,28.0,29.68,East,101,0.0,3.0,67,0.00,,,0.00,weatherlink.com 1.10,2013-02-28 22:41:00,
2013-02-28 17:56:00,38.6,27.0,29.69,WNW,291,1.0,5.0,64,0.00,,,0.00,weatherlink.com 1.10,2013-02-28 22:56:00,
2013-02-28 18:11:00,38.9,27.0,29.69,WNW,299,2.0,3.0,62,0.00,,,0.00,weatherlink.com 1.10,2013-02-28 23:11:00,
2013-02-28 18:26:00,38.9,27.0,29.70,WSW,256,2.0,5.0,62,0.00,,,0.00,weatherlink.com 1.10,2013-02-28 23:26:00,
2013-02-28 18:41:00,38.9,27.0,29.70,WSW,252,1.0,6.0,62,0.00,,,0.00,weatherlink.com 1.10,2013-02-28 23:41:00,
2013-02-28 18:56:00,38.8,27.0,29.71,NW,307,0.0,4.0,62,0.00,,,0.00,weatherlink.com 1.10,2013-02-28 23:56:00,
2013-02-28 19:11:00,38.8,27.0,29.71,North,360,1.0,5.0,64,0.00,,,0.00,weatherlink.com 1.10,2013-03-01 00:11:00,
2013-02-28 19:26:00,38.6,28.0,29.71,SW,217,2.0,7.0,65,0.00,,,0.00,weatherlink.com 1.10,2013-03-01 00:26:00,
2013-02-28 19:41:00,38.5,28.0,29.72,SSW,200,0.0,4.0,67,0.00,,,0.00,weatherlink.com 1.10,2013-03-01 00:41:00,
2013-02-28 19:56:00,38.5,28.0,29.72,SSW,194,4.0,6.0,66,0.00,,,0.00,weatherlink.com 1.10,2013-03-01 00:56:00,
2013-02-28 20:11:00,38.5,28.0,29.72,North,355,1.0,8.0,67,0.00,,,0.00,weatherlink.com 1.10,2013-03-01 01:11:00,
2013-02-28 20:26:00,38.5,29.0,29.73,NW,305,0.0,5.0,68,0.00,,,0.00,weatherlink.com 1.10,2013-03-01 01:26:00,
2013-02-28 20:41:00,38.5,29.0,29.73,North,5,3.0,4.0,68,0.00,,,0.00,weatherlink.com 1.10,2013-03-01 01:41:00,
2013-02-28 20:56:00,38.5,29.0,29.73,WSW,242,4.0,8.0,69,0.00,,,0.00,weatherlink.com 1.10,2013-03-01 01:56:00,
2013-02-28 21:11:00,38.5,29.0,29.73,West,277,2.0,5.0,68,0.00,,,0.00,weatherlink.com 1.10,2013-03-01 02:11:00,
2013-02-28 21:26:00,38.5,29.0,29.73,West,270,1.0,6.0,69,0.00,,,0.00,weatherlink.com 1.10,2013-03-01 02:26:00,
2013-02-28 21:41:00,38.4,29.0,29.74,NNE,17,1.0,5.0,70,0.00,,,0.00,weatherlink.com 1.10,2013-03-01 02:41:00,
2013-02-28 21:56:00,38.2,30.0,29.73,North,355,1.0,11.0,72,0.00,,,0.00,weatherlink.com 1.10,2013-03-01 02:56:00,
2013-02-28 22:11:00,38.1,29.0,29.74,WNW,295,1.0,11.0,71,0.00,,,0.00,weatherlink.com 1.10,2013-03-01 03:11:00,
2013-02-28 22:26:00,38.0,29.0,29.73,NNW,340,2.0,5.0,71,0.00,,,0.00,weatherlink.com 1.10,2013-03-01 03:26:00,
2013-02-28 22:41:00,38.0,29.0,29.73,NE,40,2.0,4.0,69,0.00,,,0.00,weatherlink.com 1.10,2013-03-01 03:41:00,
2013-02-28 22:56:00,37.8,29.0,29.74,NNW,347,1.0,5.0,70,0.00,,,0.00,weatherlink.com 1.10,2013-03-01 03:56:00,
2013-02-28 23:11:00,37.8,29.0,29.74,SW,223,1.0,4.0,71,0.00,,,0.00,weatherlink.com 1.10,2013-03-01 04:11:00,
2013-02-28 23:26:00,37.8,29.0,29.73,East,83,3.0,7.0,70,0.00,,,0.00,weatherlink.com 1.10,2013-03-01 04:26:00,
2013-02-28 23:41:00,37.9,29.0,29.74,North,360,2.0,6.0,70,0.00,,,0.00,weatherlink.com 1.10,2013-03-01 04:41:00,
2013-02-28 23:56:00,37.9,29.0,29.74,North,9,1.0,5.0,70,0.00,,,0.00,weatherlink.com 1.10,2013-03-01 04:56:00,